Regional Weather Roundup
Issued by NWS Little Rock, AR

Home | Current Version | Previous Version | Graphics & Text | Print | Product List | Glossary On
Versions: 1 2 3 4 5 6 7 8 9 10 11 12 13 14 15 16 17 18 19 20 21 22 23 24 25 26 27 28 29 30 31 32
000
ASUS44 KLZK 101005
RWRLZK

WEATHER ROUNDUP FOR ARKANSAS
NATIONAL WEATHER SERVICE LITTLE ROCK AR
400 AM CST SAT DEC 10 2016

NOTE: "FAIR" INDICATES FEW OR NO CLOUDS BELOW 12,000 FEET WITH NO
SIGNIFICANT WEATHER AND/OR OBSTRUCTIONS TO VISIBILITY.

ARZ001-003-010-029-101100-
NORTHWEST ARKANSAS

CITY           SKY/WX    TMP DP  RH WIND       PRES   REMARKS
FAYETTEVILLE   CLOUDY    33  16  49 SW3       30.49R
FORT SMITH     CLOUDY    34  21  59 E7        30.53S WCI  28
HARRISON       CLOUDY    28  18  66 SE5       30.49S WCI  23
BENTONVILLE    CLOUDY    34  14  44 CALM      30.49R
ROGERS         CLOUDY    33  17  51 S3        30.49R
SILOAM SPGS    CLOUDY    34  18  51 SW3       30.49R
HIGHFILL       CLOUDY    33  17  51 S7        30.48S WCI  27
$$

ARZ004-005-016-101100-
NORTH CENTRAL ARKANSAS

CITY           SKY/WX    TMP DP  RH WIND       PRES   REMARKS
BATESVILLE     CLEAR     19  16  86 CALM      30.57F
FLIPPIN        CLOUDY    23  16  74 CALM      30.50F
MTN HOME       MOCLDY    23  16  74 S6        30.51S WCI  16
$$

ARZ040-041-101100-
WEST CENTRAL ARKANSAS

CITY           SKY/WX    TMP DP  RH WIND       PRES   REMARKS
MENA           CLOUDY    37  23  56 CALM      30.50F
MOUNT IDA      CLOUDY    35  20  54 CALM      30.50S
$$

ARZ009-017-025-026-028-101100-
NORTHEAST ARKANSAS

CITY           SKY/WX    TMP DP  RH WIND       PRES   REMARKS
CORNING        FAIR      25  25 100 CALM      30.59S
JONESBORO      CLEAR     22  19  89 CALM      30.58F
NEWPORT        CLEAR     22  20  92 MISG      30.58F FOG
WALNUT RIDGE   CLEAR     25  19  80 CALM      30.58S
BLYTHEVILLE    CLEAR     24  19  81 E5        30.59F WCI  18
$$

ARZ022-023-033-042-044-101100-
CENTRAL ARKANSAS

CITY           SKY/WX    TMP DP  RH WIND       PRES   REMARKS
LITTLE ROCK    CLOUDY    27  26  96 CALM      30.59S
N LITTLE ROCK    N/A     28  23  83 CALM      30.61S
JACKSONVILLE   CLOUDY    21  19  90 CALM      30.57S
SEARCY         CLOUDY    18  17  96 CALM      30.60F
HOT SPRINGS    CLOUDY    33  22  63 E5        30.55S WCI  29
RUSSELLVILLE   CLOUDY    30  21  69 E3        30.55F
CLINTON        FAIR      19  19 100 CALM      30.57F
$$

ARZ036-101100-
EAST ARKANSAS

CITY           SKY/WX    TMP DP  RH WIND       PRES   REMARKS
WEST MEMPHIS   CLEAR     22  20  92 CALM      30.59R
$$

ARZ050-053-066-070-073-101100-
SOUTHWEST ARKANSAS

CITY           SKY/WX    TMP DP  RH WIND       PRES   REMARKS
ARKADELPHIA    CLOUDY    33  26  75 NE3       30.57F
CAMDEN         CLOUDY    32  23  69 CALM      30.57S
TEXARKANA      CLOUDY    36  25  64 E3        30.53F
EL DORADO      CLOUDY    32  25  75 CALM      30.56R
DE QUEEN       CLOUDY    37  26  64 E5        30.53R
$$

ARZ056-057-069-101100-
SOUTHEAST ARKANSAS

CITY           SKY/WX    TMP DP  RH WIND       PRES   REMARKS
PINE BLUFF     MOCLDY    24  23  96 CALM      30.58F
STUTTGART      CLEAR     28  18  64 E5        30.58F WCI  23
MONTICELLO     CLEAR     25  22  88 E3        30.56F

$$






USA.gov is the U.S. government's official web portal to all federal, state and local government web resources and services.